sat.trackr.live / text

‹ back to catalog

QIANFAN-49

NORAD 62250 · 2024-232P

PAYLOAD ACTIVE UNKNOWN

§ Identity

Operator
Country
PRC
Launch date
2024-12-05
Launch site
TAISC
Launch vehicle
Mass (kg)
RCS (m²)

External: N2YO · Heavens-Above · Gunter

§ Orbital elements

Epoch: 2026-09-22T20:55:06.570048Z

Period
106.59 min
Inclination
89.0166°
Eccentricity
0.0016108
Mean motion
13.51030984 rev/d
Perigee alt
1,056.5 km
Apogee alt
1,080.5 km
Semi-major
7,446.6 km
B*
1.2358e-4
RAAN
12.7275°
Arg perigee
95.7620°
Mean anomaly
264.5368°
Rev number
10,620

§ Raw data

QIANFAN-491 62250U 24232P   26265.87160382  .00000092  00000+0  12358-3 0  99962 62250  89.0166  12.7275 0016108  95.7620 264.5368 13.51030984106203

JSON: /api/v1/satellites/62250 · /tle

For live sub-satellite position, see the globe view (requires WebGL).

§ Visibility from observer

Set your observer location to see the next 7 days of passes ≥ 10°. The values pass through the URL so the page stays shareable.

No JS? Fill the form by hand. The geolocation button needs JavaScript.